STARLINK-32630, 62047

Orbit data source: Space-Track

STARLINK-32630, 62047 is a payload satellite owned by SpaceX/Seattle (US) in LEO that was launched on Thu, 21 Nov 2024 UTC via an FALCON 9 launch vehicle from the Air Force Eastern Test Range (AFETR). Payload-class satellites include a variety of spacecraft equipped with specific instruments for various scientific and technological missions. These include communications satellites like Starlink; space stations such as the ISS; scientific satellites like the Hubble; Earth observation satellites from companies like Planet Labs, Umbra, and HawkEye 360; GPS; miniature CubeSats for education and research; and military/defense satellites.

Loading next visibility...
Identifier
62047, 2024-216R
Orbit
LEO
Country
Flag of USUS
Related business
Manufacturer
SpaceX/Seattle
Mission
Operational Commercial Communications
Bus & Motor
STARLINK V2M, Unknown motor
Mass
730 kg wet, ~700 kg dry
Launch date (UTC)
2024-11-21 (11 months ago)
Launch vehicle
FALCON 9
Launch site
Air Force Eastern Test Range (AFETR)
Object type
Payload
Rocket body
Debris
Shape & HBR
Box + 2 Pan, 17.7 m
Radar Cross Section
33.884 m², Large (>1 m²)

Expand to show TLE details & history
Last TLE update: 1 day ago

TLE from 1 day ago
0 STARLINK-32630
1 62047U 24216R   25306.19758377  .00032778  00000-0  11960-2 0  9993
2 62047  42.9979 263.5741 0001233 246.0024 114.0699 15.27564022 54290
Epoch: 2025-11-02T04:44Z
TLE epoch observation values (Epoch: 2025-11-02T04:44:31.237Z)
Latitude
-0°
Longitude
150.72718°
Altitude
483.217 km
Speed
7.625 km/s
True Right ascension
17h 34m 17s
True Declination
0° 00' 00"
Sunlit
Object was in daylight at epoch
Visualization orbit readout
Latitude
Unknown
Longitude
Unknown
Altitude
Unknown
Speed
Unknown
Apparent Right ascension
Unknown
Apparent Declination
Unknown
Sunlit
N/A
Visualization observer readout
Local Sidereal Time
08:39:57
Azimuth
Unknown
Elevation
Unknown
Doppler factor
Unknown
Orbital elements
Apogee altitude
485.889 km
Perigee altitude
484.196 km
Semi-major axis
6,863.179 km
Eccentricity
0.00012
Inclination
42.9979°
RAAN
263.5741°
Arg. of periapsis
246.0024°
True anomaly
114.0828°
Mean anomaly
114.0699°
Eccentric anomaly
114.07635°
Mean motion
3.81729 °/min
Orbital period
94.31 mins
BSTAR
0.001196
Loading maneuver chart data...
Computing Atmospheric mass density...
Loading historical data...
Loading historical data...
Loading historical data...
Loading historical data...
Loading historical data...
Loading historical data...
Loading historical data...

Documentation

Showing up to 5 results
|